TimePST,TemperatureF,Dew PointF,Humidity,Sea Level PressureIn,VisibilityMPH,Wind Direction,Wind SpeedMPH,Gust SpeedMPH,PrecipitationIn,Events,Conditions,WindDirDegrees,DateUTC
12:08 AM,24.8,24.8,100,30.32,1.2,NNE,8.1,-,N/A,,Mostly Cloudy,20,2013-02-24 08:08:00
12:12 AM,24.8,23.0,93,30.32,2.5,NNE,8.1,-,N/A,,Overcast,30,2013-02-24 08:12:00
12:17 AM,24.8,23.0,93,30.32,9.0,NE,8.1,-,N/A,,Overcast,40,2013-02-24 08:17:00
12:27 AM,24.8,23.0,93,30.31,10.0,ENE,6.9,-,N/A,,Mostly Cloudy,60,2013-02-24 08:27:00
12:53 AM,24.8,21.2,86,30.31,10.0,NE,9.2,-,N/A,,Partly Cloudy,40,2013-02-24 08:53:00
12:56 AM,25.0,21.9,88,30.43,10.0,NE,9.2,-,N/A,,Partly Cloudy,40,2013-02-24 08:56:00
1:56 AM,25.0,21.9,88,30.43,10.0,NNE,6.9,-,N/A,,Clear,20,2013-02-24 09:56:00
2:56 AM,24.1,21.0,88,30.43,10.0,East,3.5,-,N/A,,Clear,100,2013-02-24 10:56:00
3:56 AM,24.1,19.0,81,30.42,10.0,Calm,Calm,-,N/A,,Clear,0,2013-02-24 11:56:00
4:56 AM,24.1,19.9,84,30.42,10.0,SE,5.8,-,N/A,,Partly Cloudy,140,2013-02-24 12:56:00
5:56 AM,24.1,21.0,88,30.42,10.0,SE,5.8,-,N/A,,Clear,140,2013-02-24 13:56:00
6:56 AM,25.0,21.9,88,30.42,10.0,SE,9.2,-,N/A,,Clear,130,2013-02-24 14:56:00
7:56 AM,26.1,24.1,92,30.42,10.0,ESE,9.2,-,N/A,,Clear,120,2013-02-24 15:56:00
8:15 AM,26.6,24.8,93,30.29,10.0,ESE,9.2,-,N/A,,Partly Cloudy,120,2013-02-24 16:15:00
8:56 AM,28.0,26.1,92,30.41,10.0,SE,9.2,-,N/A,,Clear,140,2013-02-24 16:56:00
9:24 AM,28.4,26.6,93,30.29,9.0,SE,6.9,-,N/A,,Partly Cloudy,130,2013-02-24 17:24:00
9:47 AM,28.4,26.6,93,30.29,5.0,SE,5.8,-,N/A,,Mostly Cloudy,130,2013-02-24 17:47:00
9:56 AM,28.9,27.0,92,30.40,4.0,SE,5.8,-,N/A,,Mostly Cloudy,140,2013-02-24 17:56:00
10:22 AM,30.2,26.6,86,30.28,10.0,ESE,5.8,-,N/A,,Scattered Clouds,120,2013-02-24 18:22:00
10:56 AM,30.9,28.0,89,30.38,10.0,SE,6.9,-,N/A,,Clear,130,2013-02-24 18:56:00
11:56 AM,34.0,30.0,85,30.36,10.0,SE,6.9,-,N/A,,Clear,140,2013-02-24 19:56:00
12:56 PM,37.9,32.0,79,30.34,10.0,Variable,4.6,-,N/A,,Clear,0,2013-02-24 20:56:00
1:56 PM,37.9,32.0,79,30.33,10.0,Calm,Calm,-,N/A,,Clear,0,2013-02-24 21:56:00
2:56 PM,39.9,30.9,70,30.31,10.0,South,3.5,-,N/A,,Clear,170,2013-02-24 22:56:00
3:56 PM,39.0,28.9,67,30.30,10.0,SSE,3.5,-,N/A,,Clear,150,2013-02-24 23:56:00
4:56 PM,37.9,28.0,68,30.28,10.0,South,5.8,-,N/A,,Clear,180,2013-02-25 00:56:00
5:56 PM,37.0,28.0,70,30.27,10.0,South,10.4,-,N/A,,Clear,180,2013-02-25 01:56:00
6:56 PM,36.0,28.0,73,30.26,10.0,SSW,8.1,-,N/A,,Clear,200,2013-02-25 02:56:00
7:56 PM,36.0,28.0,73,30.25,10.0,South,10.4,-,N/A,,Clear,190,2013-02-25 03:56:00
8:56 PM,36.0,28.0,73,30.23,10.0,SSW,12.7,-,N/A,,Mostly Cloudy,200,2013-02-25 04:56:00
9:56 PM,35.1,28.0,76,30.22,10.0,South,15.0,-,N/A,,Mostly Cloudy,190,2013-02-25 05:56:00
10:56 PM,34.0,28.9,82,30.23,10.0,SW,10.4,-,N/A,,Overcast,220,2013-02-25 06:56:00
11:56 PM,33.1,23.0,66,30.21,10.0,South,12.7,17.3,N/A,,Overcast,190,2013-02-25 07:56:00